Location: Althorst
(53.6379°N, 10.7715°E)
Time: 02:50:33
(UTC+00:00)

USA 229 DEB - Pass Details

Date: 10 December 2019
Orbit: 995 x 1217 km, 63.4° (Epoch: 20 January)

Event Time Altitude Azimuth Distance (km) Brightness Sun altitude
Rises 17:56:22 0° 310° (NW) 3,904 7.3 -25.1°
Reaches altitude 10° 17:58:59 10° 312° (NW) 2,976 6.6 -25.5°
Maximum altitude 18:06:08 78° 39° (NE) 1,181 3.7 -26.5°
Enters shadow 18:07:51 56° 110° (ESE) 1,364 3.8 -26.8°
